FW1075 Weather Reports


time (UTC)temp
C
wind
direction
speed
KPH
gust
KPH
rain 1hr
cm
rain 24hr
cm
rain mn
cm
humidity
%
barometer
mb
20260510184122 22 259 4.8 8.0 0.00 0.36 0.00 77 1011.2
20260510183143 22 270 4.8 9.7 0.00 0.41 0.00 74 1011.2
20260510182143 23 219 4.8 9.7 0.00 0.41 0.00 73 1011.1
20260510181122 24 238 6.4 9.7 0.00 0.43 0.00 70 1011.0
20260510180143 23 222 4.8 8.0 0.00 0.43 0.00 70 1011.0
20260510175122 23 265 4.8 9.7 0.00 0.46 0.00 70 1011.1
20260510174122 23 319 3.2 6.4 0.00 0.48 0.00 72 1011.1
20260510172124 22 224 3.2 9.7 0.00 0.51 0.00 73 1011.1
20260510171121 22 198 3.2 6.4 0.00 0.53 0.00 77 1011.2
20260510170142 21 187 4.8 9.7 0.00 0.56 0.00 79 1011.2
20260510165121 20 126 4.8 6.4 0.00 0.56 0.00 81 1011.4
20260510164122 20 255 4.8 8.0 0.00 0.56 0.00 82 1011.6
20260510163121 20 186 4.8 9.7 0.00 0.56 0.00 83 1011.4
20260510162124 18 193 3.2 6.4 0.00 0.56 0.00 88 1011.6
20260510161125 18 228 4.8 8.0 0.00 0.56 0.00 91 1011.7
20260510160127 18 209 3.2 6.4 0.00 0.56 0.00 89 1011.7
20260510155121 17 220 3.2 6.4 0.00 0.56 0.00 92 1011.7
20260510154142 17 181 3.2 6.4 0.00 0.56 0.00 96 1011.9
20260510153121 16 292 3.2 4.8 0.00 0.56 0.00 97 1012.1
20260510152123 16 284 3.2 6.4 0.00 0.56 0.00 99 1012.0
20260510151144 16 204 1.6 4.8 0.00 0.56 0.00 99 1011.9
20260510150124 15 248 3.2 6.4 0.00 0.56 0.00 99 1011.8
20260510145124 15 263 3.2 4.8 0.00 0.56 0.00 99 1011.8
20260510144122 15 266 3.2 4.8 0.00 0.56 0.00 99 1011.8
20260510143121 14 214 1.6 4.8 0.00 0.56 0.00 99 1011.9
20260510142122 14 273 3.2 6.4 0.00 0.56 0.00 99 1011.6
20260510141121 13 216 0.0 3.2 0.00 0.56 0.00 99 1011.5
20260510140122 13 226 3.2 4.8 0.00 0.56 0.00 99 1011.5
20260510135143 13 259 1.6 4.8 0.00 0.56 0.00 99 1011.8
20260510134125 13 114 0.0 3.2 0.00 0.56 0.00 99 1011.5
20260510133125 12 174 0.0 3.2 0.00 0.56 0.00 99 1011.4
20260510132121 12 134 1.6 3.2 0.00 0.56 0.00 99 1011.2
20260510131121 12 195 1.6 4.8 0.00 0.56 0.00 99 1011.5
20260510130121 12 236 3.2 4.8 0.00 0.56 0.00 99 1011.5
20260510125123 12 262 1.6 4.8 0.00 0.56 0.00 99 1011.4
20260510124121 12 269 0.0 3.2 0.00 0.56 0.00 99 1011.2
20260510123123 12 150 0.0 3.2 0.00 0.56 0.00 99 1011.2
20260510122121 12 262 1.6 4.8 0.00 0.56 0.00 99 1011.0
20260510121121 11 145 3.2 4.8 0.00 0.56 0.00 99 1010.7
20260510120121 11 111 3.2 4.8 0.00 0.56 0.00 99 1010.6
20260510115121 11 108 3.2 4.8 0.00 0.56 0.00 99 1010.6
20260510114121 11 106 3.2 6.4 0.00 0.56 0.00 99 1010.5
20260510113122 11 121 3.2 6.4 0.00 0.56 0.00 99 1010.4
20260510112121 11 102 4.8 6.4 0.00 0.56 0.00 99 1010.2
20260510111142 11 102 3.2 6.4 0.00 0.56 0.00 99 1010.4
20260510110121 11 109 4.8 8.0 0.00 0.56 0.00 99 1010.4
20260510105142 11 83 1.6 6.4 0.00 0.56 0.00 99 1010.4
20260510104121 11 117 3.2 8.0 0.00 0.56 0.00 99 1010.2
20260510103121 10 84 3.2 8.0 0.00 0.56 0.00 99 1010.2
20260510102143 10 92 3.2 6.4 0.00 0.56 0.00 99 1010.2
20260510101122 10 61 3.2 4.8 0.00 0.56 0.00 99 1010.2
20260510100123 10 2 1.6 4.8 0.00 0.56 0.00 99 1010.2
20260510095122 10 30 4.8 9.7 0.00 0.56 0.00 99 1010.4
20260510094122 10 312 3.2 6.4 0.00 0.56 0.00 99 1010.6
20260510093144 10 24 3.2 8.0 0.00 0.56 0.00 99 1010.6
20260510092123 10 343 3.2 6.4 0.00 0.56 0.00 99 1010.6
20260510091122 11 323 3.2 9.7 0.00 0.56 0.00 99 1010.7
20260510090121 11 316 4.8 9.7 0.00 0.56 0.00 99 1010.7
20260510085122 11 53 1.6 4.8 0.00 0.56 0.00 99 1010.5
20260510084121 11 310 0.0 3.2 0.00 0.56 0.00 99 1009.8
20260510083121 11 113 0.0 3.2 0.00 0.56 0.00 99 1009.8
20260510082122 11 44 0.0 3.2 0.00 0.56 0.00 99 1009.9
20260510081123 11 61 1.6 4.8 0.00 0.56 0.00 99 1009.8
20260510080144 11 89 1.6 3.2 0.00 0.56 0.00 99 1009.8
20260510075122 11 111 1.6 4.8 0.00 0.56 0.00 99 1009.6
20260510074122 11 102 0.0 4.8 0.00 0.56 0.00 99 1009.7
20260510073121 11 293 1.6 4.8 0.00 0.56 0.00 99 1009.7
20260510072121 11 331 0.0 3.2 0.00 0.56 0.00 99 1009.6
20260510071121 11 355 1.6 4.8 0.00 0.56 0.00 99 1009.6
20260510070122 11 73 1.6 3.2 0.00 0.56 0.00 99 1009.6
20260510065123 11 90 0.0 3.2 0.00 0.56 0.00 99 1009.4
20260510064123 11 144 0.0 4.8 0.00 0.56 0.00 99 1009.2
20260510063145 11 110 1.6 3.2 0.00 0.56 0.00 99 1009.2
20260510062122 11 90 1.6 3.2 0.00 0.56 0.00 99 1009.2
20260510061124 11 90 0.0 1.6 0.00 0.56 0.00 99 1009.2
20260510060123 11 23 0.0 4.8 0.00 0.56 0.00 99 1009.2
20260510055122 11 69 1.6 4.8 0.00 0.56 0.00 99 1009.4
20260510054122 11 80 1.6 3.2 0.00 0.56 0.00 99 1009.4
20260510053124 11 97 0.0 3.2 0.00 0.56 0.00 99 1009.5
20260510052121 11 58 0.0 3.2 0.00 0.56 0.00 99 1009.6
20260510051121 11 105 0.0 3.2 0.00 0.56 0.00 99 1009.8
20260510050121 11 180 0.0 0.0 0.00 0.56 0.00 99 1009.8
20260510045121 11 113 0.0 3.2 0.00 0.56 0.00 99 1009.7
20260510044121 11 113 0.0 3.2 0.00 0.56 0.00 99 1009.7
20260510043121 11 86 1.6 4.8 0.00 0.56 0.00 99 1009.7
20260510042122 11 110 1.6 4.8 0.00 0.56 0.00 99 1009.6
20260510041122 11 100 0.0 3.2 0.00 0.56 0.00 99 1009.5
20260510040127 11 206 1.6 4.8 0.00 0.56 0.00 99 1009.5
20260510035127 11 113 1.6 4.8 0.00 0.56 0.56 99 1009.2
20260510034121 11 102 3.2 4.8 0.00 0.56 0.56 99 1009.2
20260510033122 11 123 3.2 3.2 0.00 0.56 0.56 99 1009.2
20260510032121 11 113 0.0 1.6 0.00 0.56 0.56 99 1009.2
20260510031121 11 114 1.6 4.8 0.00 0.56 0.56 99 1009.2
20260510030121 11 99 3.2 4.8 0.00 0.56 0.56 99 1009.2
20260510025122 11 96 1.6 4.8 0.00 0.56 0.56 99 1009.2
20260510024122 11 127 1.6 3.2 0.00 0.56 0.56 99 1009.4
20260510023122 11 172 1.6 4.8 0.00 0.56 0.56 99 1009.2
20260510022122 11 103 4.8 6.4 0.00 0.56 0.56 99 1009.4
20260510021128 11 142 1.6 4.8 0.00 0.56 0.56 99 1009.2
20260510020122 11 207 1.6 3.2 0.00 0.56 0.56 99 1009.2
20260510015122 11 128 3.2 4.8 0.00 0.56 0.56 99 1009.2
20260510014122 11 139 1.6 6.4 0.00 0.56 0.56 99 1009.2
20260510013143 11 129 3.2 6.4 0.00 0.56 0.56 99 1009.1
20260510012124 11 130 1.6 4.8 0.00 0.56 0.56 99 1009.0
20260510011145 11 112 1.6 4.8 0.00 0.56 0.56 99 1009.0
20260510010122 11 113 0.0 0.0 0.00 0.56 0.56 99 1009.0
20260510005123 11 45 0.0 0.0 0.03 0.56 0.56 99 1008.9
20260510004121 11 113 0.0 0.0 0.03 0.56 0.56 99 1008.9
20260510003142 12 180 0.0 0.0 0.03 0.56 0.56 99 1008.8
20260510002121 12 248 0.0 0.0 0.03 0.56 0.56 99 1008.6
20260510001124 12 180 0.0 0.0 0.03 0.56 0.56 99 1008.4
20260510000124 12 117 1.6 4.8 0.03 0.56 0.56 99 1008.4
20260509235121 12 97 3.2 8.0 0.03 0.53 0.53 99 1008.2
20260509234123 13 114 0.0 3.2 0.10 0.53 0.53 99 1008.5
20260509233144 13 71 1.6 4.8 0.10 0.53 0.53 99 1008.2
20260509232144 13 95 1.6 4.8 0.13 0.53 0.53 99 1008.4
20260509231121 13 121 1.6 4.8 0.25 0.53 0.53 99 1008.8
20260509230121 13 8 3.2 6.4 0.25 0.53 0.53 99 1009.0
20260509225125 13 164 3.2 6.4 0.23 0.51 0.51 99 1009.0
20260509224144 13 208 3.2 6.4 0.15 0.43 0.43 99 1009.2
20260509223121 13 134 3.2 6.4 0.15 0.43 0.43 99 1009.0
20260509222143 13 97 3.2 8.0 0.13 0.41 0.41 99 1009.8
20260509221146 14 230 1.6 3.2 0.00 0.28 0.28 99 1008.8
20260509220121 13 104 3.2 6.4 0.00 0.28 0.28 99 1008.8
20260509215143 13 193 1.6 3.2 0.00 0.28 0.28 99 1009.4
20260509214128 13 186 1.6 4.8 0.00 0.28 0.28 99 1009.2
20260509213122 13 156 1.6 4.8 0.00 0.28 0.28 99 1009.2
20260509212122 13 113 3.2 4.8 0.00 0.28 0.28 99 1009.4
20260509211121 13 143 1.6 6.4 0.03 0.28 0.28 99 1009.2
20260509210121 13 179 3.2 4.8 0.03 0.28 0.28 99 1009.2
20260509205123 13 245 4.8 8.0 0.03 0.28 0.28 99 1009.4
20260509204142 13 224 3.2 8.0 0.03 0.28 0.28 99 1009.4
20260509203142 13 247 4.8 9.7 0.03 0.28 0.28 99 1009.2
20260509202123 13 245 6.4 12.9 0.03 0.28 0.28 99 1009.4
20260509201142 13 232 4.8 9.7 0.00 0.25 0.25 99 1009.2
20260509200146 14 201 4.8 8.0 0.00 0.25 0.25 99 1009.2
20260509195122 14 254 6.4 11.3 0.05 0.25 0.25 99 1009.2
20260509194143 14 194 4.8 8.0 0.05 0.25 0.25 99 1009.5
20260509193121 13 252 4.8 11.3 0.10 0.25 0.25 99 1009.5
20260509192121 13 236 3.2 6.4 0.10 0.25 0.25 99 1009.4
20260509191142 13 126 3.2 6.4 0.13 0.25 0.25 99 1009.6
20260509190121 13 228 3.2 8.0 0.13 0.25 0.25 99 1009.6
20260509185123 13 211 4.8 8.0 0.10 0.20 0.20 99 1010.0